Погода в Глухове

Россия / Владимирская область     56°07′52″N   39°50′50″E
темп.,
°C
ветер,
м/с
пор.,
м/с
влажн.,
%
обл.,
%
осадки,
мм/ч
давл.,
гПа
погр.,
м
20 апреля, вт
вт2000:00+3в61256100 0.0 1026631
03:00+2в5115991 0.0 1025567
06:00+1в5116378 0.0 1025397
09:00+4в695899 0.0 1024599
12:00+6в71054100 0.0 10231022
15:00+7вюв61269100 0.3 10211291
18:00+4вюв61493100 1.3 10201042
21:00+5вюв71586100 1.7 10171118
21 апреля, ср
ср2100:00+4в71592100 1.6 1013963
03:00+2в81797100 6.6 1009787
06:00+3в81797100 4.1 1003992
09:00+7юв81595100 7.5 1001997
12:00+3юз3799100 3.9 1002348
15:00+3ююз4996100 6.2 1005676
18:00+3ююз5991100 0.1 1007775
21:00+3ююз51094100 0.2 1010561
22 апреля, чт
чт2200:00+3ююз5994100 0.1 1011536
03:00+3ююз5996100 0.1 1012509
06:00+3ююз4797100 0.2 1014504
09:00+5ю579088 0.2 1015475
12:00+9ююз6767100 0.3 10151230
15:00+10ююз576843 1.1 10161053
18:00+10ю487193 0.3 1016648
21:00+5ю3108840 0.3 1018180
23 апреля, пт
пт2300:00+5ююв389316 0.0 1017147
03:00+4ююв39957 0.0 1017174
06:00+4ююв4119639 0.0 1017241
09:00+11ю58796 0.0 1016441
12:00+15ю695873 0.0 10161285
15:00+16ююз795285 1.0 10151665
18:00+14ю5116137 0.3 1014535
21:00+11ююв5137132 0.4 1014380
24 апреля, сб
сб2400:00+9ююв514795 0.0 1013374
03:00+7ююв411885 0.0 1012287
06:00+7юв5139078 0.1 1010349
09:00+11ююв61175100 0.3 1009781
12:00+9юз6984100 0.6 1009774
15:00+4зсз4894100 0.9 1011502
18:00+3зсз4896100 3.8 1011498
21:00+4зсз2293100 4.4 101187